Terug naar catalogus

SKYNET 4A

ActiefMilitairGEO
NORAD 20401·PAYLOAD·🇬🇧 United Kingdom

Gelanceerd Jan 1, 1990 vanaf Cape Canaveral Space Force Station

Loading…

TLE

VersSource: Space-Track

Epoch: Sep 14, 2026, 01:45 UTC

1 20401U 90001A   26257.07340340 -.00000245  00000-0  00000-0 0  9992
2 20401  12.4713 349.1313 0013824 308.5834  68.1135  0.99001182 47656

Volg SKYNET 4A in realtime met AllMySat

Download on the App Store